EW2972 Weather Reports


time (UTC)temp
C
wind
direction
speed
KPH
gust
KPH
rain 1hr
cm
rain 24hr
cm
rain mn
cm
humidity
%
barometer
mb
20260509173347 28 11 6.4 14.5 0.00 0.00 0.00 61 988.0
20260509173029 27 17 6.4 12.9 0.00 0.00 0.00 63 988.0
20260509172909 27 302 6.4 14.5 0.00 0.00 0.00 63 988.1
20260509172359 27 335 4.8 12.9 0.00 0.00 0.00 67 987.9
20260509171340 27 302 6.4 12.9 0.00 0.00 0.00 63 988.1
20260509170839 27 32 4.8 12.9 0.00 0.00 0.00 62 988.2
20260509170342 27 57 4.8 14.5 0.00 0.00 0.00 63 988.2
20260509165838 27 292 4.8 14.5 0.00 0.00 0.00 66 988.3
20260509165341 27 333 4.8 11.3 0.00 0.00 0.00 66 988.2
20260509164836 27 306 4.8 12.9 0.00 0.00 0.00 63 988.3
20260509164338 26 31 4.8 12.9 0.00 0.00 0.00 62 988.3
20260509163836 26 12 4.8 14.5 0.00 0.00 0.00 67 988.4
20260509163548 26 35 6.4 12.9 0.00 0.00 0.00 62 988.5
20260509163449 26 311 8.0 14.5 0.00 0.00 0.00 63 988.5
20260509163356 26 292 4.8 14.5 0.00 0.00 0.00 64 988.4
20260509161832 26 310 8.0 14.5 0.00 0.00 0.00 65 988.5
20260509161612 26 345 8.0 17.7 0.00 0.00 0.00 66 988.5
20260509161400 26 280 8.0 16.1 0.00 0.00 0.00 65 988.5
20260509160333 26 290 8.0 17.7 0.00 0.00 0.00 66 988.5
20260509155831 26 308 8.0 14.5 0.00 0.00 0.00 65 988.5
20260509155328 26 263 6.4 14.5 0.00 0.00 0.00 68 988.5
20260509154823 25 296 8.0 16.1 0.00 0.00 0.00 67 988.5
20260509154320 25 280 6.4 16.1 0.00 0.00 0.00 68 988.5
20260509153820 25 281 8.0 16.1 0.00 0.00 0.00 69 988.4
20260509153553 25 284 8.0 16.1 0.00 0.00 0.00 70 988.2
20260509153354 25 258 9.7 16.1 0.00 0.00 0.00 68 988.4
20260509152820 25 298 8.0 16.1 0.00 0.00 0.00 68 988.3
20260509151818 25 254 6.4 14.5 0.00 0.00 0.00 68 988.4
20260509151317 25 257 8.0 14.5 0.00 0.00 0.00 70 988.4
20260509151249 25 292 8.0 14.5 0.00 0.00 0.00 70 988.4
20260509150643 24 291 9.7 16.1 0.00 0.00 0.00 73 988.4
20260509150513 24 303 8.0 16.1 0.00 0.00 0.00 73 988.3
20260509150326 25 316 8.0 16.1 0.00 0.00 0.00 70 988.4
20260509144819 24 297 6.4 16.1 0.00 0.00 0.00 73 988.4
20260509144314 24 293 6.4 12.9 0.00 0.00 0.00 74 988.4
20260509144156 24 355 8.0 14.5 0.00 0.00 0.00 73 988.2
20260509143936 24 287 8.0 12.9 0.00 0.00 0.00 74 988.3
20260509143341 24 324 8.0 12.9 0.00 0.00 0.00 73 988.2
20260509142814 24 307 8.0 14.5 0.00 0.00 0.00 73 988.4
20260509141800 23 321 8.0 12.9 0.00 0.00 0.00 77 988.3
20260509141301 23 284 6.4 14.5 0.00 0.00 0.00 78 988.3
20260509140800 23 315 6.4 14.5 0.00 0.00 0.00 77 988.4
20260509140259 23 310 8.0 12.9 0.00 0.00 0.00 80 988.4
20260509135749 22 294 9.7 16.1 0.00 0.00 0.00 80 988.3
20260509135358 22 265 8.0 16.1 0.00 0.00 0.00 81 988.3
20260509135253 22 290 9.7 16.1 0.00 0.00 0.00 81 988.3
20260509134246 22 280 6.4 12.9 0.00 0.00 0.00 83 988.1
20260509133747 21 294 8.0 12.9 0.00 0.00 0.00 83 988.1
20260509133246 21 267 6.4 12.9 0.00 0.00 0.00 84 988.1
20260509132741 21 250 8.0 14.5 0.00 0.00 0.00 83 988.1
20260509132244 21 291 8.0 14.5 0.00 0.00 0.00 84 988.1
20260509131742 21 296 8.0 14.5 0.00 0.00 0.00 84 988.0
20260509131239 21 289 8.0 11.3 0.00 0.00 0.00 83 988.1
20260509130737 20 257 6.4 14.5 0.00 0.00 0.00 84 988.2
20260509130238 20 261 6.4 14.5 0.00 0.00 0.00 84 988.1
20260509125743 20 296 6.4 11.3 0.00 0.00 0.00 85 988.1
20260509125239 20 300 4.8 11.3 0.00 0.00 0.00 86 988.1
20260509124740 20 286 4.8 11.3 0.00 0.00 0.00 87 988.1
20260509124251 19 287 4.8 11.3 0.00 0.00 0.00 89 987.9
20260509124239 20 269 4.8 11.3 0.00 0.00 0.00 87 987.9
20260509123240 19 268 4.8 11.3 0.00 0.00 0.00 89 988.0
20260509122740 19 261 4.8 11.3 0.00 0.00 0.00 90 988.0
20260509122236 19 269 4.8 11.3 0.00 0.00 0.00 90 987.8
20260509121737 19 271 6.4 11.3 0.00 0.00 0.00 90 987.8
20260509121234 19 259 6.4 11.3 0.00 0.00 0.00 91 988.0
20260509120735 19 288 6.4 11.3 0.00 0.00 0.00 91 987.8
20260509120231 19 257 6.4 11.3 0.00 0.00 0.00 91 987.9
20260509115742 19 261 4.8 11.3 0.00 0.00 0.00 91 987.8
20260509115248 19 261 4.8 9.7 0.00 0.00 0.00 91 987.7
20260509115226 19 257 4.8 8.0 0.00 0.00 0.00 91 987.7
20260509114226 19 267 4.8 9.7 0.00 0.00 0.00 91 987.6
20260509113723 19 284 6.4 9.7 0.00 0.08 0.00 91 987.5
20260509113229 19 252 4.8 9.7 0.00 0.10 0.00 91 987.4
20260509112721 19 283 4.8 9.7 0.00 0.20 0.00 91 987.3
20260509112229 19 266 4.8 8.0 0.00 0.23 0.00 91 987.4
20260509111726 19 238 4.8 11.3 0.00 0.33 0.00 91 987.4
20260509111223 19 220 6.4 11.3 0.00 0.38 0.00 91 987.4
20260509110716 19 232 4.8 9.7 0.00 0.38 0.00 91 987.3
20260509110220 19 273 3.2 6.4 0.00 0.38 0.00 91 986.8
20260509105712 19 283 4.8 8.0 0.00 0.38 0.00 91 986.6
20260509105212 19 330 6.4 11.3 0.00 0.38 0.00 91 986.4
20260509104711 19 355 6.4 12.9 0.00 0.38 0.00 91 986.3
20260509104206 19 313 4.8 12.9 0.00 0.38 0.00 91 986.4
20260509103717 19 331 3.2 6.4 0.00 0.38 0.00 91 986.4
20260509103705 19 333 3.2 8.0 0.00 0.38 0.00 91 986.4
20260509102707 19 321 3.2 6.4 0.00 0.38 0.00 91 986.5
20260509102205 19 325 3.2 6.4 0.00 0.38 0.00 91 986.6
20260509101704 19 304 3.2 4.8 0.00 0.38 0.00 91 986.6
20260509101203 19 303 3.2 4.8 0.00 0.38 0.00 91 986.6
20260509100658 19 321 1.6 4.8 0.00 0.38 0.00 91 986.5
20260509100201 19 334 1.6 6.4 0.00 0.38 0.00 91 986.2
20260509095658 19 336 3.2 6.4 0.00 0.38 0.00 91 985.9
20260509095156 19 331 3.2 6.4 0.00 0.53 0.00 91 985.8
20260509094652 19 313 3.2 6.4 0.00 0.58 0.00 90 985.7
20260509094150 19 321 4.8 8.0 0.00 0.61 0.00 90 985.7
20260509093640 20 5 6.4 11.3 0.00 0.61 0.00 90 985.6
20260509093138 20 5 8.0 11.3 0.00 0.61 0.00 90 985.3
20260509092728 20 53 8.0 17.7 0.00 0.61 0.00 89 985.1
20260509092648 20 31 8.0 17.7 0.00 0.61 0.00 90 985.3
20260509091631 20 23 8.0 17.7 0.00 0.61 0.00 89 985.2
20260509091136 20 46 11.3 17.7 0.00 0.61 0.00 89 985.2
20260509090636 20 30 11.3 17.7 0.00 0.61 0.00 89 985.3
20260509090531 20 28 16.1 25.7 0.00 0.61 0.00 88 985.2
20260509090147 20 53 12.9 20.9 0.00 0.61 0.00 88 985.1
20260509085633 20 27 14.5 24.1 0.00 0.61 0.00 88 985.1
20260509084714 20 39 16.1 29.0 0.00 0.61 0.00 88 985.1
20260509084639 20 18 17.7 29.0 0.00 0.61 0.00 88 985.3
20260509083631 20 10 16.1 22.5 0.00 0.61 0.00 87 985.2
20260509083123 20 306 14.5 22.5 0.00 0.61 0.00 86 985.1
20260509082624 21 306 14.5 22.5 0.00 0.61 0.00 81 985.0
20260509082120 21 314 12.9 22.5 0.00 0.61 0.00 79 984.9
20260509081621 21 317 9.7 20.9 0.00 0.61 0.00 79 984.7
20260509081117 21 301 9.7 25.7 0.00 0.61 0.00 82 984.8
20260509080616 21 277 14.5 32.2 0.00 0.61 0.00 84 984.7
20260509080113 21 288 12.9 32.2 0.00 0.61 0.00 85 984.9
20260509075611 21 194 9.7 17.7 0.00 0.61 0.00 85 983.9
20260509075156 21 154 11.3 29.0 0.00 0.61 0.00 85 984.2
20260509075125 21 186 8.0 17.7 0.00 0.61 0.00 85 983.9
20260509074107 21 178 16.1 37.0 0.00 0.61 0.00 84 984.3
20260509073609 21 182 16.1 37.0 0.00 0.61 0.00 84 984.2
20260509073106 21 200 16.1 30.6 0.00 0.61 0.00 85 984.3
20260509072600 21 182 17.7 30.6 0.00 0.61 0.00 86 984.6
20260509072209 21 201 17.7 27.4 0.00 0.61 0.00 87 985.5
20260509072122 21 207 17.7 30.6 0.00 0.61 0.00 86 985.0
20260509071604 21 165 17.7 29.0 0.00 0.61 0.00 87 985.3
20260509070600 21 188 17.7 27.4 0.00 0.61 0.00 87 985.6
20260509070323 20 187 16.1 27.4 0.00 0.61 0.00 87 986.0
20260509070119 20 218 16.1 25.7 0.00 0.61 0.00 87 985.6
20260509065049 20 225 14.5 27.4 0.00 0.61 0.00 87 986.1
20260509064549 20 192 14.5 25.7 0.00 0.61 0.00 88 986.3
20260509064049 20 215 14.5 24.1 0.00 0.61 0.00 88 986.3
20260509063557 20 194 14.5 22.5 0.00 0.61 0.00 88 986.3
20260509063053 20 202 14.5 22.5 0.00 0.61 0.00 88 986.5
20260509062544 20 211 12.9 22.5 0.00 0.61 0.00 88 986.7
20260509062050 20 198 12.9 22.5 0.00 0.61 0.00 88 987.1
20260509061543 20 185 12.9 20.9 0.00 0.61 0.00 89 987.3
20260509061338 19 209 4.8 11.3 0.00 0.61 0.00 89 987.6
20260509061315 19 238 9.7 16.1 0.00 0.61 0.00 89 988.0
20260509061112 20 218 11.3 20.9 0.00 0.61 0.00 89 987.7
20260509060544 19 208 8.0 16.1 0.00 0.61 0.00 89 987.5
20260509055613 19 194 9.7 16.1 0.00 0.61 0.00 89 987.5
20260509055215 19 205 6.4 12.9 0.00 0.61 0.00 90 987.4
20260509054051 19 203 3.2 6.4 0.00 0.61 0.00 88 987.7
20260509053543 19 165 3.2 6.4 0.00 0.61 0.00 88 987.4
20260509053037 19 190 3.2 6.4 0.00 0.61 0.00 88 987.6
20260509053019 19 178 3.2 6.4 0.00 0.61 0.00 88 987.4
20260509052034 19 207 3.2 6.4 0.00 0.61 0.00 88 987.5
20260509051532 19 196 3.2 6.4 0.00 0.61 0.00 87 987.7
20260509051033 20 202 4.8 9.7 0.00 0.61 0.00 86 987.7
20260509050541 20 198 4.8 9.7 0.00 0.61 0.00 86 987.6
20260509050033 20 153 4.8 9.7 0.00 0.61 0.00 86 987.6
20260509045533 20 190 4.8 8.0 0.00 0.61 0.61 85 987.9
20260509045032 20 196 3.2 6.4 0.00 0.61 0.61 85 988.1
20260509044533 20 249 3.2 9.7 0.00 0.61 0.61 85 988.8
20260509044034 20 218 6.4 16.1 0.00 0.61 0.61 86 989.0
20260509043524 20 320 11.3 20.9 0.00 0.61 0.61 87 989.3
20260509043020 19 313 16.1 20.9 0.00 0.61 0.61 88 989.1
20260509042521 19 306 1.6 8.0 0.00 0.61 0.61 90 989.2
20260509042442 18 306 1.6 8.0 0.00 0.61 0.61 86 989.1
20260509041510 18 302 0.0 8.0 0.00 0.61 0.61 86 987.9
20260509041010 19 127 0.0 3.2 0.00 0.61 0.61 88 987.5
20260509040511 19 127 1.6 6.4 0.00 0.61 0.61 89 987.4
20260509040010 19 30 4.8 8.0 0.00 0.61 0.61 87 987.4
20260509035512 19 28 3.2 8.0 0.00 0.61 0.61 85 987.6
20260509035011 20 87 0.0 3.2 0.00 0.61 0.61 85 987.3
20260509034512 20 155 1.6 8.0 0.00 0.61 0.61 84 986.9
20260509034010 20 155 4.8 8.0 0.00 0.61 0.61 84 986.8
20260509033511 20 152 4.8 11.3 0.00 0.61 0.61 84 986.7
20260509033008 20 153 6.4 12.9 0.00 0.61 0.61 84 986.6
20260509032509 20 152 6.4 12.9 0.00 0.61 0.61 83 986.7
20260509032144 21 134 8.0 16.1 0.00 0.61 0.61 83 986.5
20260509032038 20 148 8.0 16.1 0.00 0.61 0.61 83 986.5
20260509031001 21 121 8.0 16.1 0.00 0.61 0.61 83 986.6
20260509030502 21 144 8.0 16.1 0.00 0.61 0.61 82 986.5
20260509030002 21 119 8.0 12.9 0.00 0.61 0.61 82 986.7
20260509025502 21 114 8.0 14.5 0.00 0.61 0.61 82 987.1
20260509025003 21 123 8.0 14.5 0.00 0.61 0.61 82 987.1
20260509024503 21 89 4.8 11.3 0.00 0.61 0.61 83 987.3
20260509023959 20 34 4.8 8.0 0.00 0.61 0.61 84 987.4
20260509023915 20 31 6.4 11.3 0.00 0.61 0.61 85 987.4
20260509022947 20 30 8.0 12.9 0.00 0.61 0.61 85 987.3
20260509022450 20 24 6.4 12.9 0.00 0.61 0.61 85 987.1
20260509021945 20 28 6.4 8.0 0.00 0.61 0.61 84 986.8
20260509021452 20 42 6.4 11.3 0.00 0.61 0.61 82 986.3
20260509020946 21 84 6.4 14.5 0.00 0.61 0.61 82 985.8
20260509020445 21 132 8.0 17.7 0.00 0.61 0.61 81 985.4
20260509015948 21 140 9.7 17.7 0.00 0.61 0.61 82 985.0
20260509015622 21 136 8.0 16.1 0.00 0.61 0.61 81 984.7
20260509015505 21 144 9.7 17.7 0.00 0.61 0.61 82 984.7
20260509014439 21 148 8.0 16.1 0.00 0.61 0.61 81 984.9
20260509013948 21 162 8.0 16.1 0.00 0.61 0.61 80 985.2
20260509013442 21 129 9.7 19.3 0.00 0.61 0.61 79 985.1
20260509013251 21 133 8.0 19.3 0.00 0.61 0.61 79 985.1
20260509013056 21 150 8.0 12.9 0.00 0.61 0.61 79 985.0
20260509012055 22 200 4.8 12.9 0.00 0.61 0.61 78 985.3
20260509011957 21 160 6.4 12.9 0.00 0.61 0.61 78 985.1
20260509010940 22 167 4.8 16.1 0.00 0.61 0.61 77 985.4
20260509010434 22 163 6.4 16.1 0.00 0.61 0.61 76 985.4
20260509005941 22 156 6.4 16.1 0.00 0.61 0.61 76 985.5
20260509005438 22 173 4.8 12.9 0.00 0.61 0.61 75 985.6
20260509004932 22 185 6.4 12.9 0.00 0.61 0.61 75 985.7
20260509004427 22 184 6.4 14.5 0.00 0.61 0.61 74 985.5
20260509003935 23 153 6.4 14.5 0.00 0.61 0.61 75 985.6
20260509003423 23 145 6.4 12.9 0.00 0.61 0.61 74 985.6
20260509002922 23 178 6.4 16.1 0.00 0.61 0.61 73 985.5
20260509002423 23 184 6.4 16.1 0.00 0.61 0.61 73 985.4
20260509001918 23 160 6.4 16.1 0.00 0.61 0.61 73 985.3
20260509001417 23 147 8.0 16.1 0.00 0.61 0.61 73 985.2
20260509000922 23 146 9.7 17.7 0.00 0.61 0.61 73 985.0
20260509000418 23 132 9.7 19.3 0.00 0.61 0.61 71 985.0
20260508235923 23 146 8.0 19.3 0.00 0.61 0.61 71 984.9
20260508235414 23 217 9.7 24.1 0.00 0.61 0.61 71 984.9
20260508235013 23 133 12.9 22.5 0.00 0.61 0.61 70 984.8
20260508234931 23 129 12.9 24.1 0.00 0.61 0.61 70 984.9
20260508233917 23 154 16.1 24.1 0.00 0.61 0.61 70 984.9
20260508233508 24 165 12.9 19.3 0.00 0.61 0.61 68 985.2
20260508233421 23 132 14.5 24.1 0.00 0.61 0.61 69 985.1
20260508232955 24 136 9.7 24.1 0.00 0.61 0.61 68 985.2
20260508232426 24 178 9.7 17.7 0.00 0.61 0.61 69 985.2
20260508231413 24 172 12.9 24.1 0.00 0.61 0.61 69 985.3
20260508230904 24 157 14.5 24.1 0.00 0.61 0.61 69 985.3
20260508230729 24 147 11.3 19.3 0.00 0.61 0.61 70 985.6
20260508230459 24 132 12.9 22.5 0.00 0.61 0.61 68 985.3
20260508225357 24 117 12.9 20.9 0.00 0.61 0.61 69 985.4
20260508225324 25 140 12.9 20.9 0.00 0.61 0.61 68 985.6
20260508225031 24 138 12.9 24.1 0.00 0.61 0.61 68 985.4
20260508224452 24 150 12.9 24.1 0.00 0.61 0.61 69 985.4
20260508223919 24 163 12.9 22.5 0.00 0.61 0.61 68 985.6
20260508222855 25 127 12.9 20.9 0.00 0.61 0.61 68 985.7
20260508222557 25 130 8.0 19.3 0.00 0.61 0.61 67 985.7
20260508222420 25 134 9.7 17.7 0.00 0.61 0.61 69 985.6
20260508221353 25 138 9.7 19.3 0.00 0.61 0.61 68 985.7
20260508220856 25 155 11.3 19.3 0.00 0.61 0.61 67 985.6
20260508220357 25 165 9.7 19.3 0.00 0.61 0.61 69 985.7
20260508215851 25 159 9.7 19.3 0.00 0.61 0.61 69 985.7
20260508215352 25 150 9.7 20.9 0.00 0.61 0.61 69 985.7
20260508214847 25 192 9.7 20.9 0.00 0.61 0.61 66 985.7
20260508214347 25 159 9.7 20.9 0.00 0.61 0.61 66 985.7
20260508213848 25 158 9.7 20.9 0.00 0.61 0.61 67 985.7
20260508213345 25 151 9.7 17.7 0.00 0.61 0.61 67 985.7
20260508212843 25 124 11.3 17.7 0.00 0.61 0.61 66 986.0
20260508212340 25 207 12.9 20.9 0.00 0.61 0.61 66 985.9
20260508211844 25 132 11.3 24.1 0.00 0.61 0.61 69 985.9
20260508211339 25 155 11.3 24.1 0.00 0.61 0.61 65 985.9
20260508210841 25 133 11.3 22.5 0.00 0.61 0.61 65 986.0
20260508210341 24 163 12.9 22.5 0.00 0.61 0.61 65 985.8
20260508205839 24 196 11.3 22.5 0.00 0.61 0.61 67 985.8
20260508205337 24 176 12.9 25.7 0.00 0.61 0.61 67 986.1
20260508205017 25 136 12.9 25.7 0.00 0.61 0.61 66 986.6
20260508204855 25 148 12.9 25.7 0.00 0.61 0.61 65 986.3
20260508203837 24 154 12.9 25.7 0.00 0.61 0.61 65 986.7
20260508203340 24 113 16.1 40.2 0.00 0.61 0.61 65 991.9
20260508202833 24 144 16.1 40.2 0.00 0.61 0.61 65 986.8
20260508202337 25 196 12.9 27.4 0.00 0.61 0.61 67 986.8
20260508201833 25 146 9.7 24.1 0.00 0.61 0.61 66 986.8
20260508201331 25 200 9.7 20.9 0.00 0.61 0.61 66 987.1
20260508200830 25 140 11.3 22.5 0.00 0.61 0.61 65 987.4
20260508200330 25 207 11.3 22.5 0.00 0.61 0.61 68 987.4
20260508195827 25 159 9.7 20.9 0.00 0.61 0.61 65 987.3
20260508195330 25 152 9.7 17.7 0.00 0.61 0.61 63 987.4
20260508194829 25 138 8.0 17.7 0.00 0.61 0.61 64 987.6
20260508194325 24 194 6.4 16.1 0.00 0.61 0.61 67 987.6
20260508193824 23 147 8.0 14.5 0.00 0.61 0.61 67 987.8
20260508193340 23 190 9.7 20.9 0.00 0.61 0.61 69 987.8
20260508192822 23 200 9.7 20.9 0.00 0.61 0.61 68 987.9
20260508192322 23 138 11.3 17.7 0.00 0.61 0.61 68 987.8
20260508191823 24 134 11.3 17.7 0.00 0.61 0.61 65 987.9
20260508191322 24 139 9.7 17.7 0.00 0.61 0.61 65 987.9
20260508191147 24 146 11.3 20.9 0.00 0.61 0.61 66 988.0
20260508191137 24 136 9.7 19.3 0.00 0.61 0.61 68 988.0
20260508190925 25 185 9.7 20.9 0.00 0.61 0.61 64 987.9
20260508185322 23 189 11.3 22.5 0.00 0.61 0.61 65 988.0
20260508184825 24 182 11.3 22.5 0.00 0.61 0.61 65 988.1
20260508184441 24 193 9.7 19.3 0.00 0.61 0.61 64 988.4
20260508184332 24 208 11.3 22.5 0.00 0.61 0.61 64 988.3
20260508183325 24 194 9.7 19.3 0.00 0.61 0.61 67 988.3
20260508182828 23 140 9.7 17.7 0.00 0.61 0.61 66 988.3
20260508182324 23 150 8.0 17.7 0.00 0.61 0.61 68 988.2
20260508181822 23 151 8.0 19.3 0.00 0.61 0.61 68 988.3
20260508181316 23 215 9.7 19.3 0.00 0.61 0.61 67 988.6
20260508180820 23 138 9.7 17.7 0.00 0.61 0.61 69 988.7
20260508180327 23 117 9.7 19.3 0.00 0.61 0.61 71 988.7
20260508175811 23 159 8.0 19.3 0.00 0.61 0.61 68 988.9
20260508175315 23 210 8.0 16.1 0.00 0.61 0.61 69 989.0
20260508174812 23 206 6.4 14.5 0.00 0.61 0.61 73 989.1
20260508174313 22 196 6.4 14.5 0.00 0.61 0.61 70 989.2